"Pseudo-MPEC" for P12oG7V

Created 2026 Jul 28 21:35:08 UT using Find_Orb

Click here for an explanation of pseudo-MPECs

 
 Astrometry: 
     P12oG7V*0C2026 07 26.57554200 09 44.733-28 14 59.03   ~7QFZ 20.90wXNEOCPF51
     P12oG7V 0C2026 07 26.59551400 09 45.729-28 15 10.42   ~7QFZ 20.70wXNEOCPF51
     P12oG7V 0C2026 07 26.60547600 09 46.224-28 15 16.10   ~7QFZ 20.90wXNEOCPF51
     P12oG7V 0C2026 07 28.61288300 11 29.606-28 34 42.10   ~7SH5 20.63GVNEOCPF51
     P12oG7V 0C2026 07 28.61370400 11 29.654-28 34 42.66   ~7SH5 20.59GVNEOCPF51

Station data:
(F51) Pan-STARRS 1, Haleakala  (N20.707234 W156.255910)  US/Hawaii.
   Observers J. Herman, T. Lowe, P. Minguez, A. Schultz, I. Smith. Measurers
   K. Chambers, T. de Boer, J. Fairlamb, H. Gao, M. Huber, C.-C. Lin, E.
   Magnier, Y. Ramanjooloo, R. Wainscoat, R. Weryk. 1.8-m Ritchey-Chrétien +
   CCD.

Orbital elements:  P12oG7V
   Perihelion 2026 Nov 25.337707 +/- 75.8 TT =  8:06:17.8 (JD 2461369.837707)
Epoch 2026 Jul 28.0 TT = JDT 2461249.5   Earth MOID: 0.7689      AutoNEOCP
M 333.936819768 +/- 23              (J2000 ecliptic)
n   0.216583654 +/- 0.185           Peri.  311.904278 +/- 70
a   2.746116332 +/- 1.57            Node    72.517061 +/- 22
e   0.37305123 +/- 0.251            Incl.   16.085832 +/- 3.4
P   4.55070                H 17.86  G  0.15   U 11.6  SR
q 1.721674239 +/- 0.507    Q 3.770558425 +/- 44.8
From 5 observations 2026 July 26-28; mean residual 0".04
Residuals in arcseconds: 
260726 F51  .00   .03-    260726 F51  .01-  .02+    260728 F51  .06+  .04-    
260726 F51  .01+  .01+    260728 F51  .06-  .04+    

Ephemerides (geocentric):
Date (UTC) HH   RA             Dec           delta  r     elong  mag " sig PA
---- --------  ------------   ------------  ------ ------ -----  --- --------
2026 07 28 22  00 11 44.757   -28 37 36.15  1.1491 1.9550 129.1 20.7 5.83  44
2026 07 28 23  00 11 46.813   -28 38 00.87  1.1487 1.9549 129.1 20.7 6.51  47
2026 07 29 00  00 11 48.866   -28 38 25.60  1.1484 1.9547 129.1 20.7 7.22  50
2026 07 29 01  00 11 50.916   -28 38 50.36  1.1480 1.9546 129.1 20.7 7.98  52
2026 07 29 02  00 11 52.963   -28 39 15.12  1.1476 1.9544 129.2 20.7 8.76  54
2026 07 29 03  00 11 55.007   -28 39 39.91  1.1473 1.9543 129.2 20.7 9.58  55
2026 07 29 04  00 11 57.049   -28 40 04.71  1.1469 1.9542 129.2 20.7 10.4  56
2026 07 29 05  00 11 59.087   -28 40 29.52  1.1465 1.9540 129.2 20.7 11.3  57
2026 07 29 06  00 12 01.122   -28 40 54.35  1.1461 1.9539 129.3 20.7 12.2  58
2026 07 29 07  00 12 03.155   -28 41 19.20  1.1458 1.9537 129.3 20.7 13.1  59
2026 07 29 08  00 12 05.184   -28 41 44.06  1.1454 1.9536 129.3 20.7 14.1  60
2026 07 29 09  00 12 07.211   -28 42 08.94  1.1450 1.9534 129.3 20.7 15.1  60
2026 07 29 10  00 12 09.235   -28 42 33.83  1.1447 1.9533 129.4 20.7 16.1  61
2026 07 29 11  00 12 11.256   -28 42 58.74  1.1443 1.9531 129.4 20.7 17.1  62
2026 07 29 12  00 12 13.273   -28 43 23.67  1.1439 1.9530 129.4 20.7 18.1  62
2026 07 29 13  00 12 15.288   -28 43 48.61  1.1436 1.9529 129.4 20.7 19.2  62
2026 07 29 14  00 12 17.300   -28 44 13.56  1.1432 1.9527 129.5 20.7 20.3  63
2026 07 29 15  00 12 19.309   -28 44 38.54  1.1428 1.9526 129.5 20.7 21.4  63
2026 07 29 16  00 12 21.315   -28 45 03.52  1.1424 1.9524 129.5 20.7 22.6  64
2026 07 29 17  00 12 23.319   -28 45 28.53  1.1421 1.9523 129.5 20.7 23.8  64
2026 07 29 18  00 12 25.319   -28 45 53.55  1.1417 1.9521 129.6 20.7 25.0  64
2026 07 29 19  00 12 27.316   -28 46 18.58  1.1413 1.9520 129.6 20.7 26.2  64
2026 07 29 20  00 12 29.310   -28 46 43.63  1.1410 1.9519 129.6 20.7 27.5  65
2026 07 29 21  00 12 31.302   -28 47 08.70  1.1406 1.9517 129.6 20.7 28.7  65
2026 07 29 22  00 12 33.290   -28 47 33.78  1.1402 1.9516 129.7 20.7 30.0  65
2026 07 29 23  00 12 35.275   -28 47 58.87  1.1399 1.9514 129.7 20.7 31.3  65
2026 07 30 00  00 12 37.258   -28 48 23.99  1.1395 1.9513 129.7 20.7 32.7  65
2026 07 30 01  00 12 39.237   -28 48 49.11  1.1391 1.9511 129.7 20.7 34.1  66
2026 07 30 02  00 12 41.214   -28 49 14.26  1.1388 1.9510 129.8 20.7 35.5  66
2026 07 30 03  00 12 43.187   -28 49 39.41  1.1384 1.9509 129.8 20.7 36.9  66
2026 07 30 04  00 12 45.158   -28 50 04.59  1.1380 1.9507 129.8 20.7 38.3  66
2026 07 30 05  00 12 47.126   -28 50 29.78  1.1377 1.9506 129.8 20.7 39.8  66
2026 07 30 06  00 12 49.090   -28 50 54.98  1.1373 1.9504 129.9 20.7 41.3  66
2026 07 30 07  00 12 51.052   -28 51 20.20  1.1369 1.9503 129.9 20.7 42.8  66
2026 07 30 08  00 12 53.010   -28 51 45.43  1.1366 1.9501 129.9 20.7 44.3  66
2026 07 30 09  00 12 54.966   -28 52 10.68  1.1362 1.9500 129.9 20.7 45.9  67
2026 07 30 10  00 12 56.919   -28 52 35.95  1.1358 1.9499 130.0 20.7 47.5  67
2026 07 30 11  00 12 58.868   -28 53 01.23  1.1355 1.9497 130.0 20.7 49.1  67
2026 07 30 12  00 13 00.815   -28 53 26.52  1.1351 1.9496 130.0 20.7 50.7  67
2026 07 30 13  00 13 02.758   -28 53 51.83  1.1348 1.9494 130.0 20.7 52.4  67
2026 07 30 14  00 13 04.699   -28 54 17.16  1.1344 1.9493 130.1 20.7 54.0  67
2026 07 30 15  00 13 06.637   -28 54 42.50  1.1340 1.9491 130.1 20.7 55.7  67
2026 07 30 16  00 13 08.571   -28 55 07.86  1.1337 1.9490 130.1 20.7 57.5  67
2026 07 30 17  00 13 10.503   -28 55 33.23  1.1333 1.9489 130.1 20.7 59.2  67
2026 07 30 18  00 13 12.431   -28 55 58.61  1.1329 1.9487 130.2 20.7 61.0  67
2026 07 30 19  00 13 14.357   -28 56 24.01  1.1326 1.9486 130.2 20.7 62.8  67
2026 07 30 20  00 13 16.280   -28 56 49.43  1.1322 1.9484 130.2 20.7 64.6  67
2026 07 30 21  00 13 18.199   -28 57 14.86  1.1319 1.9483 130.2 20.7 66.5  67